Location: Newark
(42.7133°N, 87.7910°W)
Time: 00:05:43
(UTC+00:00)

Tiros 1 - Pass Details

Date: 28 September 2019
Orbit: 630 x 664 km, 48.4° (Epoch: 16 October)

Event Time Altitude Azimuth Distance (km) Brightness Sun altitude
Rises 22:28:28 0° 289° (WNW) 2,952 11.6 11.8°
Reaches altitude 10° 22:31:12 10° 275° (W) 2,032 11.5 11.3°
Maximum altitude 22:34:49 22° 224° (SW) 1,373 10.0 10.7°
Drops below altitude 10° 22:38:25 10° 173° (S) 2,008 9.8 10.0°
Sets 22:41:07 0° 158° (SSE) 2,907 10.4 9.6°
